Location: Unspecified
(0.0000°N, 0.0000°E)
Time: 23:19:06
(UTC+00:00)

Tiros 1 - All Passes

Search period start: 01 October 2020 00:00
Search period end: 11 October 2020 00:00
Orbit: 630 x 664 km, 48.4° (Epoch: 01 October)

Date Brightness Start Highest point End Pass type
(mag) Time Alt. Az. Time Alt. Az. Time Alt. Az.
01 Oct - 09:19:24 10° SSE 09:22:15 16° SE 09:25:05 10° E daylight
01 Oct - 11:00:00 10° WSW 11:04:16 38° NW 11:08:34 10° NNE daylight
01 Oct - 21:31:06 10° N 21:35:16 29° NE 21:39:26 10° ESE night (unlit)
01 Oct - 23:13:37 10° WNW 23:17:18 22° SW 23:21:00 10° S night (unlit)
02 Oct - 09:43:44 10° SSW 09:48:14 52° SE 09:52:44 10° NE daylight
02 Oct - 11:28:38 10° WNW 11:30:18 12° NW 11:31:57 10° NNW daylight
02 Oct - 21:56:25 10° NW 22:01:13 83° SW 22:06:00 10° SE night (unlit)
03 Oct - 08:29:42 10° SSE 08:32:08 14° SE 08:34:33 10° E daylight
03 Oct - 10:09:47 10° WSW 10:14:10 43° NW 10:18:33 10° NNE daylight
03 Oct - 20:41:08 10° N 20:45:08 26° NE 20:49:08 10° ESE night (unlit)
03 Oct - 22:23:16 10° WNW 22:27:10 25° SW 22:31:05 10° S night (unlit)
04 Oct - 08:53:43 10° SSW 08:58:08 45° SE 09:02:32 10° NE daylight
04 Oct - 10:37:56 10° W 10:40:10 13° NW 10:42:24 10° NNW daylight
04 Oct - 21:06:17 10° NW 21:11:05 87° NE 21:15:54 10° SE night (unlit)
05 Oct - 07:40:06 10° SSE 07:42:00 12° SE 07:43:55 10° ESE daylight
05 Oct - 09:19:36 10° SW 09:24:03 49° NW 09:28:31 10° NNE daylight
05 Oct - 19:51:12 10° N 19:55:00 23° NE 19:58:49 10° ESE visible
05 Oct - 21:32:56 10° WNW 21:37:02 28° SW 21:41:09 10° S night (unlit)
06 Oct - 08:03:42 10° SSW 08:08:01 40° SE 08:12:20 10° ENE daylight
06 Oct - 09:47:23 10° W 09:50:02 15° NW 09:52:42 10° NNW daylight
06 Oct - 20:16:10 10° NW 20:20:58 77° NE 20:25:45 10° SE visible
07 Oct - 06:50:46 10° SE 06:51:53 11° SE 06:52:59 10° ESE daylight
07 Oct - 08:29:26 10° SW 08:33:57 57° NW 08:38:28 10° NNE daylight
07 Oct - 19:01:18 10° N 19:04:52 21° NE 19:08:26 10° E visible
07 Oct - 20:42:39 10° WNW 20:46:54 32° SW 20:51:10 10° SSE visible
08 Oct - 07:13:42 10° SSW 07:17:55 35° SE 07:22:06 10° ENE daylight
08 Oct - 08:56:55 10° W 08:59:55 17° NW 09:02:56 10° N daylight
08 Oct - 19:26:04 10° NNW 19:30:50 67° NE 19:35:36 10° SE visible
09 Oct - 07:39:16 10° SW 07:43:51 65° NW 07:48:24 10° NNE daylight
09 Oct - 18:11:26 10° N 18:14:43 18° NE 18:18:02 10° E visible
09 Oct - 19:52:22 10° WNW 19:56:47 36° SW 20:01:11 10° SSE visible
10 Oct - 06:23:43 10° SSW 06:27:48 31° SE 06:31:51 10° ENE daylight
10 Oct - 08:06:30 10° W 08:09:47 19° NW 08:13:06 10° N daylight
10 Oct - 18:35:59 10° NNW 18:40:42 59° NE 18:45:26 10° SE visible
10 Oct - 20:21:13 10° WSW 20:22:49 11° SW 20:24:24 10° SSW visible
